Location: Baia de Cri?
(46.1667°N, 22.7167°E)
Time: 16:55:15
(UTC+00:00)

Tiangong - Pass Details

Date: 15 March 2026
Orbit: 376 x 385 km, 41.5° (Epoch: 18 April)

Event Time Altitude Azimuth Distance (km) Brightness Sun altitude
Exits shadow 04:01:43 - 241° (WSW) 1,477 0.2 -7.9°
Reaches altitude 10° 04:01:55 10° 240° (WSW) 1,402 0.1 -7.8°
Maximum altitude 04:04:48 33° 174° (S) 674 -0.9 -7.3°
Drops below altitude 10° 04:07:43 10° 108° (ESE) 1,412 2.0 -6.8°
Sets 04:09:54 0° 99° (E) 2,270 3.8 -6.4°
